| time (UTC) | temp F | wind direction | speed MPH | gust MPH | rain 1hr in | rain 24hr in | rain mn in | humidity % | barometer mb |
| 20260906070036 | 70 | 338 | 0.0 | 0.0 | 0.00 | 0.00 | 0.00 | 90 | 1016.3 |
| 20260906064524 | 71 | 338 | 0.0 | 0.0 | 0.00 | 0.00 | 0.00 | 90 | 1016.3 |
| 20260906063022 | 71 | 338 | 0.0 | 0.0 | 0.00 | 0.00 | 0.00 | 89 | 1016.3 |
| 20260906061521 | 72 | 338 | 0.0 | 1.0 | 0.00 | 0.00 | 0.00 | 88 | 1016.5 |
| 20260906060017 | 72 | 348 | 0.0 | 3.0 | 0.00 | 0.00 | 0.00 | 87 | 1016.4 |
| 20260906054521 | 72 | 349 | 0.0 | 4.0 | 0.00 | 0.00 | 0.00 | 87 | 1016.1 |
| 20260906053013 | 73 | 355 | 1.0 | 7.0 | 0.00 | 0.00 | 0.00 | 86 | 1016.1 |
| 20260906051519 | 73 | 342 | 1.0 | 6.0 | 0.00 | 0.00 | 0.00 | 86 | 1016.0 |
| 20260906050010 | 73 | 5 | 0.0 | 2.0 | 0.00 | 0.00 | 0.00 | 86 | 1015.8 |
| 20260906044509 | 73 | 340 | 0.0 | 0.0 | 0.00 | 0.00 | 0.00 | 86 | 1015.7 |
| 20260906043007 | 73 | 344 | 0.0 | 0.0 | 0.00 | 0.00 | 0.00 | 86 | 1015.6 |
| 20260906041506 | 73 | 288 | 0.0 | 2.0 | 0.00 | 0.00 | 0.00 | 85 | 1015.4 |
| 20260906040004 | 73 | 344 | 0.0 | 4.0 | 0.00 | 0.00 | 0.00 | 85 | 1015.4 |
| 20260906034503 | 73 | 355 | 0.0 | 2.0 | 0.00 | 0.00 | 0.00 | 84 | 1015.2 |
| 20260906033003 | 73 | 338 | 0.0 | 4.0 | 0.00 | 0.00 | 0.00 | 84 | 1015.2 |
| 20260906031502 | 73 | 360 | 1.0 | 5.0 | 0.00 | 0.00 | 0.00 | 84 | 1015.1 |
| 20260906030002 | 73 | 299 | 1.0 | 6.0 | 0.00 | 0.00 | 0.00 | 84 | 1015.1 |
| 20260906024502 | 73 | 342 | 0.0 | 8.0 | 0.00 | 0.00 | 0.00 | 84 | 1015.1 |
| 20260906023000 | 73 | 317 | 1.0 | 5.0 | 0.00 | 0.00 | 0.00 | 85 | 1015.0 |
| 20260906021600 | 73 | 30 | 2.0 | 8.0 | 0.00 | 0.00 | 0.00 | 84 | 1015.1 |
| 20260906020059 | 73 | 31 | 1.0 | 7.0 | 0.00 | 0.00 | 0.00 | 84 | 1015.0 |
| 20260906014623 | 73 | 17 | 2.0 | 7.0 | 0.00 | 0.00 | 0.00 | 84 | 1014.9 |
| 20260906013058 | 73 | 47 | 2.0 | 8.0 | 0.00 | 0.00 | 0.00 | 85 | 1014.9 |
| 20260906011558 | 73 | 116 | 2.0 | 9.0 | 0.00 | 0.00 | 0.00 | 84 | 1014.7 |
| 20260906010051 | 74 | 343 | 3.0 | 10.0 | 0.00 | 0.00 | 0.00 | 82 | 1014.8 |
| 20260906004600 | 76 | 339 | 3.0 | 12.0 | 0.00 | 0.00 | 0.00 | 81 | 1014.6 |
| 20260906003052 | 76 | 330 | 1.0 | 9.0 | 0.00 | 0.00 | 0.00 | 81 | 1014.5 |
| 20260906001547 | 77 | 104 | 0.0 | 5.0 | 0.00 | 0.00 | 0.00 | 80 | 1014.3 |
| 20260906000047 | 78 | 47 | 0.0 | 6.0 | 0.00 | 0.00 | 0.00 | 79 | 1014.0 |
| 20260905234553 | 79 | 330 | 0.0 | 4.0 | 0.00 | 0.00 | 0.00 | 78 | 1013.5 |
| 20260905233044 | 80 | 340 | 0.0 | 2.0 | 0.00 | 0.00 | 0.00 | 78 | 1013.3 |
| 20260905231543 | 81 | 5 | 0.0 | 3.0 | 0.00 | 0.00 | 0.00 | 77 | 1013.6 |
| 20260905230044 | 81 | 5 | 1.0 | 6.0 | 0.00 | 0.00 | 0.00 | 75 | 1013.5 |
| 20260905224548 | 81 | 343 | 0.0 | 4.0 | 0.00 | 0.00 | 0.00 | 75 | 1013.3 |
| 20260905223041 | 82 | 355 | 0.0 | 3.0 | 0.00 | 0.00 | 0.00 | 76 | 1013.2 |
| 20260905221542 | 82 | 348 | 0.0 | 3.0 | 0.00 | 0.00 | 0.00 | 74 | 1013.2 |
| 20260905220040 | 83 | 319 | 1.0 | 7.0 | 0.00 | 0.00 | 0.00 | 73 | 1013.2 |
| 20260905214539 | 82 | 350 | 2.0 | 9.0 | 0.00 | 0.00 | 0.00 | 74 | 1013.2 |
| 20260905213039 | 82 | 14 | 2.0 | 8.0 | 0.00 | 0.00 | 0.00 | 75 | 1013.3 |
| 20260905211538 | 81 | 346 | 5.0 | 9.0 | 0.00 | 0.00 | 0.00 | 74 | 1013.2 |
| 20260905210038 | 82 | 17 | 4.0 | 10.0 | 0.00 | 0.00 | 0.00 | 74 | 1013.3 |
| 20260905204538 | 82 | 355 | 1.0 | 11.0 | 0.00 | 0.00 | 0.00 | 75 | 1013.3 |
| 20260905203037 | 83 | 339 | 7.0 | 12.0 | 0.00 | 0.00 | 0.00 | 73 | 1013.4 |
| 20260905201538 | 83 | 23 | 5.0 | 13.0 | 0.00 | 0.00 | 0.00 | 74 | 1013.4 |
| 20260905200046 | 83 | 360 | 6.0 | 12.0 | 0.00 | 0.00 | 0.00 | 73 | 1013.3 |
| 20260905194536 | 84 | 77 | 1.0 | 7.0 | 0.00 | 0.00 | 0.00 | 74 | 1013.3 |
| 20260905193035 | 83 | 60 | 2.0 | 11.0 | 0.00 | 0.00 | 0.00 | 75 | 1013.3 |
| 20260905191538 | 84 | 51 | 1.0 | 11.0 | 0.00 | 0.00 | 0.00 | 73 | 1013.3 |
| 20260905190046 | 85 | 36 | 2.0 | 10.0 | 0.00 | 0.00 | 0.00 | 74 | 1013.2 |
| 20260905184548 | 85 | 355 | 2.0 | 8.0 | 0.00 | 0.00 | 0.00 | 73 | 1013.4 |
| 20260905183033 | 86 | 14 | 3.0 | 6.0 | 0.00 | 0.00 | 0.00 | 71 | 1013.5 |
| 20260905181533 | 85 | 355 | 1.0 | 5.0 | 0.00 | 0.00 | 0.00 | 74 | 1013.4 |
| 20260905180030 | 85 | 5 | 1.0 | 8.0 | 0.00 | 0.00 | 0.00 | 73 | 1013.5 |
| 20260905174529 | 85 | 360 | 3.0 | 6.0 | 0.00 | 0.00 | 0.00 | 74 | 1013.4 |
| 20260905173030 | 85 | 9 | 2.0 | 7.0 | 0.00 | 0.00 | 0.00 | 74 | 1013.4 |
| 20260905171533 | 85 | 11 | 0.0 | 8.0 | 0.00 | 0.00 | 0.00 | 76 | 1013.4 |
| 20260905170026 | 84 | 360 | 1.0 | 9.0 | 0.00 | 0.00 | 0.00 | 76 | 1013.6 |
| 20260905164533 | 84 | 36 | 2.0 | 8.0 | 0.00 | 0.00 | 0.00 | 77 | 1013.7 |
| 20260905163023 | 84 | 231 | 0.0 | 6.0 | 0.00 | 0.00 | 0.00 | 80 | 1013.7 |
| 20260905161521 | 83 | 355 | 3.0 | 7.0 | 0.00 | 0.00 | 0.00 | 78 | 1013.7 |
| 20260905160017 | 82 | 10 | 2.0 | 8.0 | 0.00 | 0.00 | 0.00 | 80 | 1013.8 |
| 20260905154517 | 81 | 335 | 1.0 | 7.0 | 0.00 | 0.00 | 0.00 | 83 | 1013.7 |
| 20260905153014 | 79 | 5 | 1.0 | 8.0 | 0.00 | 0.00 | 0.00 | 85 | 1013.7 |
| 20260905151513 | 79 | 283 | 2.0 | 9.0 | 0.00 | 0.00 | 0.00 | 86 | 1013.6 |
| 20260905150013 | 78 | 5 | 2.0 | 8.0 | 0.00 | 0.00 | 0.00 | 87 | 1013.4 |
| 20260905144509 | 78 | 360 | 1.0 | 9.0 | 0.00 | 0.00 | 0.00 | 87 | 1013.3 |
| 20260905143019 | 79 | 21 | 4.0 | 9.0 | 0.00 | 0.00 | 0.00 | 86 | 1013.1 |
| 20260905141509 | 80 | 9 | 3.0 | 9.0 | 0.00 | 0.00 | 0.00 | 85 | 1013.0 |
| 20260905140010 | 79 | 337 | 0.0 | 6.0 | 0.00 | 0.00 | 0.00 | 87 | 1012.9 |
| 20260905134510 | 78 | 350 | 0.0 | 3.0 | 0.00 | 0.00 | 0.00 | 91 | 1012.6 |
| 20260905133009 | 77 | 360 | 1.0 | 7.0 | 0.00 | 0.00 | 0.00 | 92 | 1012.8 |
| 20260905131510 | 77 | 5 | 1.0 | 4.0 | 0.00 | 0.00 | 0.00 | 94 | 1013.2 |
| 20260905130002 | 76 | 360 | 0.0 | 4.0 | 0.00 | 0.00 | 0.00 | 95 | 1012.6 |
| 20260905124602 | 76 | 5 | 0.0 | 3.0 | 0.00 | 0.00 | 0.00 | 95 | 1012.4 |
| 20260905123101 | 75 | 355 | 0.0 | 4.0 | 0.00 | 0.00 | 0.00 | 95 | 1012.2 |
| 20260905121559 | 75 | 336 | 0.0 | 0.0 | 0.00 | 0.00 | 0.00 | 95 | 1012.1 |
| 20260905120107 | 74 | 336 | 0.0 | 0.0 | 0.00 | 0.00 | 0.00 | 95 | 1012.0 |
| 20260905114555 | 75 | 336 | 0.0 | 0.0 | 0.00 | 0.00 | 0.00 | 95 | 1011.9 |
| 20260905113054 | 75 | 336 | 0.0 | 0.0 | 0.00 | 0.00 | 0.00 | 95 | 1011.6 |
| 20260905111608 | 75 | 336 | 0.0 | 0.0 | 0.00 | 0.00 | 0.00 | 94 | 1011.3 |
| 20260905110057 | 75 | 336 | 0.0 | 0.0 | 0.00 | 0.00 | 0.00 | 94 | 1011.3 |
| 20260905104551 | 75 | 336 | 0.0 | 0.0 | 0.00 | 0.00 | 0.00 | 94 | 1011.3 |
| 20260905103050 | 75 | 336 | 0.0 | 0.0 | 0.00 | 0.00 | 0.00 | 94 | 1011.4 |
| 20260905101551 | 75 | 336 | 0.0 | 0.0 | 0.00 | 0.00 | 0.00 | 94 | 1011.5 |
| 20260905100048 | 76 | 336 | 0.0 | 0.0 | 0.00 | 0.00 | 0.00 | 93 | 1011.4 |
| 20260905094547 | 76 | 336 | 0.0 | 0.0 | 0.00 | 0.00 | 0.00 | 94 | 1011.4 |
| 20260905093046 | 76 | 336 | 0.0 | 0.0 | 0.00 | 0.00 | 0.00 | 93 | 1011.4 |
| 20260905091544 | 76 | 336 | 0.0 | 0.0 | 0.00 | 0.00 | 0.00 | 93 | 1011.3 |
| 20260905090042 | 77 | 336 | 0.0 | 0.0 | 0.00 | 0.00 | 0.00 | 93 | 1011.4 |
| 20260905084541 | 77 | 337 | 0.0 | 0.0 | 0.00 | 0.00 | 0.00 | 93 | 1011.5 |
| 20260905083040 | 77 | 336 | 0.0 | 0.0 | 0.00 | 0.00 | 0.00 | 92 | 1011.5 |
| 20260905081539 | 77 | 336 | 0.0 | 0.0 | 0.00 | 0.00 | 0.00 | 92 | 1011.5 |
| 20260905080040 | 78 | 337 | 0.0 | 0.0 | 0.00 | 0.00 | 0.00 | 91 | 1011.5 |
| 20260905074540 | 78 | 337 | 0.0 | 2.0 | 0.00 | 0.00 | 0.00 | 91 | 1011.6 |
| 20260905073051 | 78 | 252 | 0.0 | 0.0 | 0.00 | 0.00 | 0.00 | 90 | 1011.4 |
| 20260905071541 | 79 | 252 | 0.0 | 0.0 | 0.00 | 0.00 | 0.00 | 90 | 1011.4 |